TimeCST,TemperatureF,Dew PointF,Humidity,Sea Level PressureIn,VisibilityMPH,Wind Direction,Wind SpeedMPH,Gust SpeedMPH,PrecipitationIn,Events,Conditions,WindDirDegrees,DateUTC
12:53 AM,19.0,14.0,81,30.01,10.0,SSW,5.8,-,N/A,,Clear,210,2013-01-31 06:53:00
1:53 AM,19.0,14.0,81,30.01,10.0,SSW,5.8,-,N/A,,Clear,210,2013-01-31 07:53:00
2:53 AM,21.9,17.1,82,30.01,10.0,SW,9.2,-,N/A,,Overcast,220,2013-01-31 08:53:00
3:53 AM,24.1,18.0,77,30.00,10.0,WSW,4.6,-,N/A,,Overcast,240,2013-01-31 09:53:00
5:53 AM,23.0,18.0,81,30.00,10.0,Calm,Calm,-,N/A,,Mostly Cloudy,0,2013-01-31 11:53:00
6:53 AM,23.0,18.0,81,30.04,10.0,NW,10.4,-,N/A,,Mostly Cloudy,320,2013-01-31 12:53:00
7:53 AM,21.9,15.1,75,30.09,9.0,NNW,16.1,-,N/A,,Mostly Cloudy,340,2013-01-31 13:53:00
8:53 AM,21.9,14.0,72,30.12,10.0,North,16.1,-,N/A,,Partly Cloudy,350,2013-01-31 14:53:00
9:53 AM,19.9,10.0,65,30.16,10.0,NNW,12.7,23.0,N/A,,Scattered Clouds,330,2013-01-31 15:53:00
10:53 AM,19.9,8.1,60,30.20,10.0,NW,19.6,25.3,N/A,,Overcast,320,2013-01-31 16:53:00
11:53 AM,19.0,7.0,59,30.24,10.0,NW,18.4,28.8,N/A,,Overcast,320,2013-01-31 17:53:00
12:53 PM,19.9,7.0,57,30.26,10.0,NNW,23.0,27.6,N/A,,Overcast,330,2013-01-31 18:53:00
2:53 PM,19.9,8.1,60,30.30,10.0,NW,23.0,29.9,N/A,,Partly Cloudy,310,2013-01-31 20:53:00
3:53 PM,12.9,1.0,59,30.35,10.0,NNW,18.4,29.9,N/A,,Clear,330,2013-01-31 21:53:00
4:53 PM,14.0,1.9,59,30.36,10.0,NW,13.8,23.0,N/A,,Clear,310,2013-01-31 22:53:00
6:53 PM,10.9,1.9,67,30.43,10.0,NNW,10.4,-,N/A,,Clear,340,2013-02-01 00:53:00
7:53 PM,8.1,1.0,73,30.45,10.0,North,5.8,-,N/A,,Clear,10,2013-02-01 01:53:00
8:53 PM,9.0,-0.0,67,30.49,10.0,NW,6.9,-,N/A,,Clear,320,2013-02-01 02:53:00
9:53 PM,9.0,1.0,70,30.52,10.0,West,3.5,-,N/A,,Clear,270,2013-02-01 03:53:00
10:53 PM,8.1,1.0,73,30.51,10.0,NW,4.6,-,0.00,,Clear,320,2013-02-01 04:53:00
11:53 PM,8.1,1.0,73,30.51,9.0,WNW,3.5,-,0.00,Snow,Light Snow,290,2013-02-01 05:53:00